RH
46 47 48 47 46 44 42 38 37 35 32 32 29 28 28 27 26 25 25 24 25 25 31 35 31 27 26 28 33 42 49 54 62 70 67 62 64 50 44 46 42 44 54 66 68 69 72 72 71 68 63 57 57 60 56 54 56 58 52 43 39 44 52 54 53 54 58 62 62 63 64 63 59 49 38 45 55 47 36 29 27 26 23 21 19 15 13 14 16 18 19 20 21 20 20 19 19
48 49 49 48 46 44 41 38 37 35 32 31 30 29 28 28 26 25 24 24 25 24 30 36 34 26 23 27 32 40 49 56 60 65 65 61 57 47 44 43 42 47 56 67 69 71 73 74 73 69 64 58 61 61 57 59 62 57 46 39 42 50 54 56 56 58 62 64 63 65 66 66 61 47 45 52 52 48 41 33 32 32 28 25 22 17 13 13 13 16 16 17 18 17 17 17 18
50 50 49 48 46 44 41 37 36 34 31 30 30 30 29 28 27 26 24 25 28 28 29 30 29 25 25 28 32 39 43 52 61 67 66 59 55 47 42 42 46 52 58 67 69 71 74 76 74 70 66 63 64 61 61 65 63 51 40 40 47 54 56 58 59 61 65 63 65 69 69 67 59 50 58 60 53 51 44 36 34 34 32 28 25 20 15 14 14 16 18 17 17 17 16 16 18
50 50 49 48 46 44 41 38 36 35 31 30 31 32 29 28 27 27 25 26 28 28 26 25 26 27 30 30 35 41 39 49 59 62 60 55 54 48 43 46 52 57 61 63 64 69 73 76 73 69 67 66 64 63 66 66 57 45 40 46 52 56 58 59 61 65 66 66 70 73 71 67 59 61 71 67 59 54 45 37 32 31 32 30 27 22 17 15 15 19 21 21 22 22 21 20 20
51 50 49 48 46 44 43 39 37 36 32 29 31 31 29 28 28 27 26 26 26 25 24 23 24 26 31 34 39 41 40 51 54 56 58 54 53 47 45 50 55 59 58 56 58 66 73 75 71 68 69 68 65 65 67 61 50 43 46 53 57 58 59 60 63 68 69 71 76 76 73 66 61 70 77 70 62 54 43 36 32 29 29 29 27 23 20 18 18 22 25 26 27 27 26 25 24
53 51 50 49 48 46 44 41 39 37 34 31 31 31 29 29 28 27 27 26 25 24 24 22 22 22 28 38 42 40 40 47 49 54 58 54 50 46 48 53 57 56 53 54 60 70 76 76 72 72 75 72 67 65 63 56 47 46 54 59 59 59 60 62 66 70 73 78 81 78 72 64 66 77 78 72 64 53 43 37 34 31 28 28 27 24 22 22 21 24 28 31 32 32 32 30 28
56 54 52 51 49 47 45 43 42 39 38 35 32 32 30 30 28 28 27 26 25 24 24 23 23 22 25 36 41 42 43 44 45 48 49 50 49 48 53 56 57 54 52 58 67 78 81 77 77 79 80 76 69 66 60 52 48 51 57 60 60 61 62 64 68 73 78 84 84 77 68 67 77 84 80 75 67 56 46 39 36 33 30 28 27 26 24 25 26 26 30 34 36 37 36 34 31
58 55 53 52 50 48 47 45 44 43 41 39 37 34 33 31 30 29 27 26 25 25 25 23 25 24 26 32 35 41 46 44 44 42 41 45 49 52 57 58 55 52 55 65 78 88 84 81 84 83 81 78 71 64 57 51 52 56 59 61 62 63 65 67 71 76 83 87 84 75 68 74 88 92 84 77 69 58 48 42 38 34 30 29 29 28 27 28 30 30 31 35 39 41 40 37 34
59 57 55 54 51 49 49 47 47 45 43 43 41 39 37 35 32 30 28 27 26 26 26 25 27 27 30 31 29 37 44 44 42 39 40 44 51 58 59 56 52 53 63 76 87 89 85 87 88 81 80 79 71 62 54 54 58 61 62 64 65 66 67 69 73 78 85 87 82 75 70 77 86 90 86 78 71 60 50 45 41 37 33 32 31 29 28 29 32 34 34 36 41 44 43 39 35
60 57 56 56 52 49 50 49 48 47 45 44 43 42 41 38 34 32 30 28 27 27 27 28 28 28 33 34 30 34 38 38 36 35 39 46 55 60 57 54 52 59 71 82 88 86 88 93 85 77 79 77 68 59 54 58 63 66 66 67 68 68 69 71 75 81 86 86 82 77 73 75 80 87 89 82 74 63 55 51 46 41 37 33 31 29 29 31 34 36 37 38 41 43 43 40 36
60 58 57 57 53 51 53 52 50 48 45 44 43 43 42 38 34 34 33 31 29 29 29 29 28 28 31 31 31 35 35 31 30 32 37 44 52 53 52 54 58 67 75 82 86 88 93 92 81 77 77 72 63 56 57 62 66 69 69 69 69 70 70 73 79 84 86 85 83 84 83 81 83 90 93 86 74 63 57 53 47 42 38 34 32 32 33 35 37 37 37 38 39 41 42 39 36
56 57 57 56 54 54 55 54 52 49 46 44 44 44 41 38 37 37 37 34 32 30 29 28 27 27 28 29 33 38 37 32 31 31 34 37 43 47 51 56 61 68 76 84 92 96 97 89 81 76 70 64 59 57 60 65 68 70 70 70 70 70 71 76 82 87 87 86 85 89 91 89 88 90 90 82 70 62 58 54 49 45 41 38 37 37 37 37 38 38 37 37 37 38 39 37 35
49 53 56 53 52 56 57 57 55 50 45 43 44 43 40 39 39 38 37 37 35 32 31 28 29 29 26 29 39 44 38 33 32 30 29 32 39 48 53 57 61 68 79 91 99 100 96 87 77 68 62 60 60 61 64 67 69 71 71 71 71 71 74 78 84 88 88 85 85 90 93 90 85 83 82 77 70 66 62 59 55 51 48 44 43 42 39 38 38 38 39 39 37 37 36 35 34
40 45 51 50 50 55 58 58 56 51 46 45 44 42 40 38 38 37 36 37 36 34 33 31 32 33 34 39 43 42 34 28 28 27 29 37 46 52 55 59 65 73 83 92 97 97 90 79 67 60 59 60 63 65 67 69 70 72 72 72 72 73 76 79 84 87 86 83 85 88 90 92 88 83 81 79 76 71 66 62 59 54 50 47 48 47 42 38 37 38 41 41 39 37 36 35 35
31 35 41 43 47 52 55 55 54 52 49 47 45 42 39 37 35 35 34 35 35 35 34 33 33 33 44 55 45 33 27 26 30 34 37 42 44 47 53 59 66 74 81 89 92 87 78 68 60 59 60 62 66 67 68 70 72 73 73 72 73 74 75 79 84 85 83 82 84 83 83 88 89 86 85 85 83 77 71 68 65 61 56 52 53 50 45 40 38 40 42 42 41 39 36 36 36
25 28 31 35 40 46 49 49 50 50 48 47 45 41 39 35 34 33 32 33 33 34 34 33 34 32 41 51 45 38 37 36 39 41 41 38 36 40 49 57 67 74 76 79 79 71 64 59 58 58 60 63 66 68 69 72 73 74 74 73 73 74 75 78 82 82 81 82 82 81 80 81 81 81 83 85 85 82 77 73 71 68 63 59 57 54 49 44 41 42 42 41 40 39 37 36 36
22 24 25 28 33 38 42 43 45 45 43 43 43 41 38 35 33 32 31 31 31 32 33 33 34 33 34 37 42 49 50 46 41 37 37 36 35 38 44 54 67 68 62 63 63 60 58 56 57 58 59 62 67 70 71 73 74 75 75 74 74 74 74 75 77 78 80 84 89 92 91 88 85 85 85 84 85 84 80 78 77 73 68 65 62 59 56 51 46 45 44 40 38 38 37 36 36
20 21 22 25 28 31 34 36 38 38 38 39 40 39 37 34 32 31 30 29 29 30 31 32 33 33 33 33 36 43 46 45 40 35 37 39 39 40 44 54 60 55 50 53 56 57 57 56 57 57 59 63 68 71 73 75 76 76 76 75 74 74 74 74 74 76 81 88 97 102 100 98 97 95 92 88 90 89 87 87 84 78 74 70 66 63 59 56 51 48 46 42 39 37 37 38 37
19 19 20 23 25 27 28 29 31 32 33 35 36 36 35 33 32 30 29 28 28 29 29 30 31 32 32 32 32 33 35 37 38 40 42 42 43 45 49 53 53 48 48 51 54 57 59 59 58 57 60 65 69 72 75 77 78 78 77 76 76 75 75 74 73 76 87 97 100 101 100 101 103 101 98 96 96 95 93 92 88 82 77 72 68 64 60 58 55 51 48 45 43 41 39 40 40
19 19 20 21 22 23 24 25 25 26 27 29 31 32 32 31 31 30 29 28 28 27 28 28 29 31 31 32 32 32 31 32 35 39 40 41 45 50 53 52 50 48 50 53 55 57 60 61 60 59 61 64 68 72 76 78 78 79 78 78 77 77 77 76 76 81 92 102 103 102 101 102 104 103 102 101 99 98 96 92 88 82 75 70 67 63 61 58 56 53 50 48 46 43 40 40 44
20 21 21 21 20 20 21 21 21 22 23 25 26 28 29 29 29 28 28 28 28 27 27 27 28 29 31 33 33 33 32 32 33 34 36 41 46 51 51 49 49 50 51 54 55 57 59 61 61 60 61 64 69 73 77 78 78 79 79 79 78 78 79 78 80 88 96 99 99 98 98 98 99 97 95 95 94 94 92 89 84 78 72 69 66 63 61 58 55 53 51 48 46 43 41 44 50
21 22 22 21 20 19 19 18 19 20 20 22 23 24 26 27 28 27 27 27 27 27 27 27 28 29 31 33 34 34 34 33 32 31 35 41 45 46 44 43 48 51 52 52 53 54 56 58 59 60 61 65 71 75 78 79 79 80 80 80 80 80 80 80 82 90 97 96 91 86 84 85 86 86 85 84 83 83 83 83 81 76 71 68 65 63 61 58 55 54 52 48 46 44 44 47 52
21 21 21 21 20 19 18 18 18 18 19 20 21 23 25 27 27 26 26 27 26 26 27 28 28 28 30 32 33 33 34 34 33 32 34 38 38 38 37 39 45 48 48 48 49 50 52 54 55 56 60 65 71 76 78 79 80 81 82 83 83 83 82 81 82 87 92 93 87 80 77 78 79 80 80 80 79 79 80 82 80 77 72 67 65 62 60 60 57 56 53 49 48 48 47 48 50
21 21 21 22 21 20 19 19 18 18 18 19 20 22 25 26 27 27 27 26 26 26 27 28 28 28 29 30 32 32 33 33 33 34 36 36 34 34 36 39 43 45 45 46 46 46 48 50 51 52 57 63 69 74 76 77 80 82 84 85 86 85 85 82 81 83 83 83 81 78 77 78 79 80 79 80 80 80 82 83 82 79 73 67 65 62 60 62 60 58 56 52 50 52 51 50 50
23 22 21 22 22 21 20 20 19 19 18 19 20 22 24 27 28 28 27 27 27 27 27 28 28 29 29 30 30 31 32 33 34 35 37 36 34 35 37 38 40 42 43 44 44 45 47 48 49 51 55 60 66 70 71 74 79 82 84 86 88 87 86 84 82 81 80 79 78 78 79 79 79 80 79 79 79 81 81 80 79 78 74 70 66 64 63 63 63 61 60 57 55 56 55 53 48
26 24 22 22 22 22 21 21 21 20 20 20 20 22 24 27 30 29 28 28 28 27 27 27 28 30 30 29 29 30 31 32 34 35 36 36 34 36 37 37 39 41 42 42 43 44 46 49 49 50 53 58 63 65 67 70 75 80 83 85 88 88 87 85 84 82 81 80 80 79 79 80 79 79 79 78 77 78 76 74 74 72 71 70 69 68 67 65 64 64 64 63 62 60 58 54 49
28 27 25 24 23 22 22 22 23 22 22 21 21 22 23 26 29 30 29 29 28 28 28 28 28 29 30 30 30 30 31 32 33 33 34 33 34 35 36 36 38 40 42 43 44 45 47 48 49 49 50 55 60 62 64 66 70 75 80 83 85 87 87 86 85 84 83 82 81 80 80 79 79 79 78 77 76 75 73 72 71 70 69 68 69 70 69 68 67 68 68 68 68 65 60 55 53
30 29 27 26 24 23 22 22 23 23 23 23 22 22 23 26 27 28 29 29 30 29 28 28 28 28 29 30 30 31 30 30 30 30 30 31 33 34 34 35 37 40 43 45 45 46 49 50 50 48 50 54 58 62 63 63 66 72 77 80 83 85 86 86 85 85 84 83 81 80 79 79 79 79 78 77 76 75 73 73 72 71 70 70 71 71 72 71 71 71 71 71 70 67 62 58 56
31 29 29 29 26 24 22 22 22 23 23 24 24 24 25 26 26 28 28 29 30 30 29 29 28 29 30 29 30 30 29 29 28 28 28 29 31 32 33 34 36 40 42 43 44 47 50 51 52 51 53 56 59 61 64 65 67 72 77 80 82 83 85 85 85 84 83 82 81 80 79 79 79 79 79 78 77 76 75 75 74 73 73 72 72 73 73 71 71 73 73 73 71 67 63 60 58
34 31 29 29 27 25 23 22 22 23 23 24 25 26 27 27 27 27 27 28 29 30 29 29 29 29 29 29 29 28 27 26 26 26 27 28 29 30 32 33 35 36 37 38 39 42 46 48 50 52 54 56 58 60 62 66 69 72 77 80 80 82 84 84 84 84 83 82 81 81 80 80 80 80 79 78 78 78 78 78 77 76 75 73 72 71 71 69 69 71 71 72 71 68 65 62 60
38 32 29 28 27 26 25 23 22 23 23 23 25 27 28 28 28 28 28 28 28 29 29 29 30 29 29 28 27 27 26 25 25 25 26 28 29 29 30 30 30 31 32 33 35 37 39 44 47 51 53 53 53 57 61 66 70 74 78 79 80 81 82 84 84 84 84 85 84 82 82 81 81 80 80 80 80 80 80 80 79 78 75 73 72 71 70 68 68 69 66 66 66 66 67 66 64
41 36 31 28 27 26 26 24 24 25 23 23 25 26 28 29 30 30 29 28 28 28 28 28 29 29 29 28 27 27 25 25 25 24 25 27 28 29 29 29 28 29 29 29 31 33 34 39 46 50 53 53 53 56 62 68 72 76 79 80 80 81 82 82 82 85 85 85 85 83 83 82 82 82 81 82 82 83 83 83 81 79 77 74 72 70 68 67 66 66 63 61 62 64 68 70 68
43 41 34 29 28 28 27 26 27 28 25 23 25 26 27 30 31 31 30 29 28 26 27 28 28 28 27 27 27 26 26 26 24 24 25 26 27 26 24 23 24 25 26 27 28 29 32 37 47 55 58 59 60 60 62 69 74 75 77 78 79 80 81 80 79 81 82 83 84 84 84 84 83 84 84 85 85 86 86 85 83 79 77 74 71 69 66 64 62 61 60 58 60 64 68 72 71
47 45 38 33 30 29 28 27 29 29 27 26 25 25 26 29 30 31 31 29 27 26 26 25 24 25 25 25 25 24 25 25 24 25 24 24 23 24 31 34 31 29 27 26 26 27 32 39 46 53 57 60 63 62 62 68 72 71 70 70 73 76 78 76 75 75 77 80 82 84 85 85 86 87 88 89 89 90 88 86 83 79 76 73 69 67 65 63 61 59 59 58 61 67 70 74 74
52 51 45 42 36 32 29 27 30 30 30 29 27 26 25 26 29 30 30 28 26 25 23 22 23 23 24 25 26 26 25 24 26 25 24 26 23 33 65 81 75 69 66 59 45 32 29 37 46 49 51 56 58 57 59 64 67 64 61 62 67 73 73 71 70 73 76 79 81 84 86 87 89 90 91 92 93 92 89 85 82 78 75 72 69 67 65 63 61 59 60 62 66 71 74 79 80
55 61 55 51 42 35 32 29 31 31 30 31 30 28 26 25 27 27 28 27 25 24 23 22 20 21 25 25 26 30 30 28 27 25 25 24 19 25 50 76 93 96 99 100 84 65 53 43 40 43 49 56 56 55 57 59 57 53 52 57 62 64 65 67 69 72 75 78 81 85 87 89 89 91 93 94 93 91 87 83 80 77 74 71 69 67 65 64 61 60 61 66 74 80 80 83 86
62 74 63 56 48 38 34 31 30 31 30 31 32 30 28 26 25 26 26 25 24 23 23 23 23 24 27 27 29 33 34 33 29 27 26 22 32 44 29 32 76 99 98 103 101 97 95 76 59 54 55 57 54 52 53 50 45 43 47 51 54 56 59 64 66 69 72 75 80 84 85 85 87 91 93 93 91 88 84 81 77 75 74 72 70 68 67 65 61 60 63 70 81 88 86 85 87
63 80 72 63 57 45 38 34 32 32 30 31 32 31 30 27 26 24 23 24 23 22 23 24 22 21 25 29 33 33 34 39 38 35 32 26 46 84 73 35 52 91 100 100 101 103 107 102 96 91 82 73 64 60 56 48 43 45 47 47 48 51 54 56 59 62 67 71 74 76 76 79 83 87 89 88 87 85 82 79 76 75 75 74 72 70 67 65 61 60 64 71 81 88 87 87 87
52 71 78 70 63 52 44 40 36 34 32 31 31 32 31 28 27 24 23 24 22 24 27 24 22 27 40 53 54 47 42 42 41 38 37 35 34 64 88 58 43 84 107 100 99 101 101 103 105 108 105 96 87 84 76 65 60 60 58 54 50 50 49 49 53 55 59 63 63 65 67 71 76 78 81 82 82 82 79 77 76 76 76 74 72 71 67 64 61 59 62 69 77 84 87 89 88
43 57 76 78 67 59 52 46 41 37 35 34 34 33 30 29 28 25 25 24 22 24 26 30 37 40 59 84 80 64 51 40 38 36 31 35 30 30 48 41 46 90 109 101 101 100 99 101 102 105 106 102 99 98 95 85 80 81 79 73 65 60 56 54 55 54 54 54 55 59 62 65 69 73 75 77 78 78 75 75 75 75 76 74 73 71 68 65 62 58 60 64 70 80 87 91 91
43 48 68 80 74 65 57 52 48 44 39 38 37 34 30 29 29 27 27 25 23 24 22 29 37 34 58 91 78 49 41 34 34 34 30 38 43 36 30 24 49 94 104 98 100 99 100 101 100 102 101 101 101 99 98 91 90 95 95 88 80 73 68 63 57 54 52 52 55 58 61 64 69 72 73 73 73 72 71 72 74 74 75 74 73 71 68 66 63 60 60 63 71 83 89 92 91
48 48 57 74 83 73 61 59 58 51 45 43 40 36 31 29 29 28 28 27 25 26 23 24 25 24 41 59 45 28 29 31 30 29 35 53 63 58 41 25 40 79 100 104 103 99 101 101 99 101 100 99 97 94 93 88 89 93 88 78 72 68 63 56 48 46 47 48 51 56 60 64 67 67 66 66 66 66 69 72 73 73 73 72 71 69 68 66 64 64 67 72 82 89 91 91 89
54 52 52 67 86 83 70 66 65 59 51 46 44 40 34 32 31 28 28 29 27 27 26 25 25 25 28 29 27 29 28 27 28 25 27 46 67 78 74 61 57 67 82 95 100 99 99 100 100 99 97 94 91 91 91 86 83 81 71 59 54 51 46 39 35 36 39 41 44 49 53 55 56 56 56 58 61 64 67 70 71 70 69 67 67 66 66 65 67 73 78 85 90 90 90 89 86
61 55 51 58 74 81 80 75 69 63 56 53 51 45 38 35 33 30 29 29 29 28 27 27 27 26 27 28 28 29 27 26 26 26 26 29 42 63 83 96 98 87 74 74 91 103 100 97 99 100 99 97 96 99 98 93 89 84 77 66 58 51 40 32 32 33 34 35 37 39 41 42 43 44 47 51 55 57 59 62 63 63 62 61 62 63 65 69 77 85 90 96 96 90 89 87 84
68 63 55 53 58 65 76 80 76 68 62 62 58 49 43 39 36 35 33 31 30 30 29 29 29 28 27 28 27 26 28 29 27 27 30 28 28 36 49 71 97 105 93 80 86 98 100 99 101 103 104 102 102 103 97 90 85 79 73 66 60 54 45 42 44 40 34 32 32 34 35 36 37 39 41 43 46 47 49 50 53 54 54 55 58 61 67 76 87 93 97 104 103 95 91 87 83
74 75 66 56 52 51 60 71 76 74 68 64 58 52 48 44 40 39 38 36 34 33 32 30 29 29 29 26 27 29 29 34 38 37 35 29 28 30 28 39 73 103 104 91 90 98 101 102 101 102 102 99 94 90 82 76 71 68 66 65 62 58 55 53 49 40 32 30 30 32 33 34 36 37 38 39 40 40 41 42 43 45 46 49 54 59 66 75 84 91 97 105 105 99 94 90 85
83 83 76 65 56 48 47 55 65 72 74 69 61 57 53 47 44 43 44 44 40 36 34 31 29 29 29 27 27 30 38 53 56 53 52 40 27 27 28 29 48 85 103 98 97 101 99 99 101 102 98 93 87 81 74 65 59 58 61 62 61 58 54 47 40 35 31 30 31 31 32 33 34 35 36 37 38 39 39 39 40 40 42 45 51 57 62 69 75 83 91 95 95 91 90 89 84
97 91 82 73 62 52 45 43 47 57 71 74 66 62 58 53 49 48 51 50 45 41 36 33 32 31 28 28 27 26 43 67 67 64 72 63 39 26 28 28 30 63 100 105 100 102 102 100 99 99 99 96 90 82 71 59 54 56 60 59 55 56 56 48 40 37 35 34 34 33 32 33 33 34 35 36 37 38 38 39 40 40 41 43 49 54 59 65 69 75 84 87 82 79 81 83 82
102 97 90 82 69 57 46 39 36 40 52 59 63 67 64 60 57 54 56 57 52 46 42 38 34 33 30 27 28 26 35 52 56 62 70 63 51 38 30 29 26 41 74 97 104 101 99 100 100 101 99 89 77 68 59 55 55 58 61 58 54 57 59 52 47 48 48 45 40 37 35 34 35 34 35 36 36 38 39 39 40 40 41 43 46 50 54 59 64 70 78 79 74 72 76 79 79
98 95 92 90 80 65 51 43 38 36 39 45 61 72 69 66 64 61 63 64 61 53 46 43 38 35 33 28 29 28 29 33 35 43 44 39 53 60 44 33 30 28 41 75 102 103 98 98 92 83 75 66 64 64 65 66 65 59 56 55 55 57 58 56 63 74 76 65 49 42 39 37 37 37 36 37 37 38 39 38 39 40 41 43 45 48 51 55 60 66 69 70 71 73 76 78 78
103 100 96 90 86 79 69 58 49 42 37 41 55 62 66 73 73 72 75 71 68 61 51 47 43 38 34 32 32 29 28 29 27 30 30 33 57 72 57 41 37 33 32 50 71 79 79 71 61 63 71 82 91 93 90 88 85 76 67 61 57 54 55 58 70 84 88 81 66 51 46 42 41 40 39 39 39 39 39 38 39 39 40 42 45 47 49 52 58 64 67 70 75 78 77 78 77
104 103 100 94 91 89 82 71 62 55 47 47 53 50 56 75 86 89 85 77 74 68 58 52 47 43 39 35 34 32 30 29 28 27 25 32 50 59 49 36 34 41 49 55 54 54 59 60 69 87 94 95 95 89 82 78 81 85 81 76 69 61 58 57 59 64 70 78 75 63 55 48 44 43 42 42 41 41 40 39 40 41 41 42 43 45 48 55 63 67 72 77 82 83 81 81 79
99 94 92 95 97 96 92 82 70 59 50 51 57 48 45 68 96 104 93 85 83 73 63 57 51 47 44 39 36 35 33 31 29 27 25 27 32 32 30 32 47 69 84 91 85 81 85 89 96 99 89 83 80 75 69 62 68 79 78 81 84 75 68 63 58 54 53 59 60 56 53 48 46 45 44 45 44 42 41 40 40 41 42 43 44 47 53 62 69 71 75 81 85 87 83 79 80
91 94 92 92 93 95 97 86 71 61 52 50 53 45 39 53 82 102 100 94 91 83 72 62 55 53 49 45 42 38 35 32 27 24 26 28 29 40 59 72 85 96 97 100 101 100 102 101 98 96 92 93 93 91 88 82 85 85 73 74 85 82 74 70 64 57 53 52 51 50 49 48 48 47 47 47 45 44 42 40 40 40 40 43 45 51 60 66 70 73 79 87 92 93 86 76 76
76 91 96 96 98 99 96 79 65 61 56 55 57 48 41 43 60 90 105 100 96 93 84 71 61 57 53 51 47 41 35 30 28 27 29 40 58 79 98 101 100 101 100 101 103 101 101 101 100 102 100 100 100 100 99 94 95 94 82 80 86 82 76 71 65 60 56 52 50 50 50 49 49 49 49 48 47 46 45 43 42 41 41 43 45 52 60 65 69 76 84 90 95 95 88 77 72
74 78 81 91 101 101 96 86 77 72 63 66 74 64 51 46 53 80 104 102 97 98 93 85 71 60 58 55 49 45 40 32 33 33 33 59 91 99 100 102 101 100 102 103 103 101 101 101 101 101 100 100 100 98 94 90 88 88 89 91 89 82 77 75 71 65 58 50 46 46 47 48 49 49 49 49 48 48 48 48 47 46 46 46 47 51 56 61 68 76 82 83 83 85 83 77 72
84 77 73 78 83 86 87 82 78 74 67 72 87 82 66 56 54 75 102 107 101 100 98 94 83 69 62 59 52 48 44 38 38 37 40 68 96 97 97 105 102 98 100 102 102 101 100 101 101 101 101 100 100 99 98 96 90 85 87 89 85 79 78 78 74 67 60 54 49 46 46 47 48 49 49 48 48 47 47 49 49 50 51 49 50 51 52 57 64 70 75 74 72 73 75 75 71
93 86 84 82 80 81 80 74 71 71 64 65 81 84 71 62 59 68 94 108 106 105 103 98 94 82 69 64 58 53 49 44 41 40 41 63 89 98 101 102 98 99 103 100 99 100 100 100 99 99 100 100 100 100 100 100 98 93 87 83 81 80 83 83 76 69 67 66 62 59 59 60 60 59 57 53 50 48 47 48 48 49 51 51 51 52 52 54 58 63 66 67 69 69 70 69 65
Wind_Speed
54 54 53 53 53 52 51 52 52 50 50 50 49 50 49 49 47 46 46 44 44 44 45 45 46 45 44 44 44 45 45 44 43 43 44 44 45 47 46 47 47 45 42 40 41 42 43 44 46 48 47 45 45 45 44 44 44 43 43 42 39 35 33 31 30 29 29 29 29 29 28 28 28 25 20 16 13 11 13 15 16 17 17 18 20 20 18 17 16 16 18 19 20 20 21 21 22
55 55 54 54 53 53 51 52 51 49 50 49 49 50 49 48 47 45 43 44 44 43 44 45 45 45 44 44 45 45 45 45 45 45 46 46 46 47 48 48 48 45 42 41 42 43 44 45 46 47 47 46 45 44 44 44 43 43 42 40 36 33 31 30 29 28 28 29 29 29 28 28 27 24 19 16 13 11 13 14 16 17 17 17 19 21 20 18 17 16 17 19 20 21 21 22 23
56 56 55 54 54 53 51 51 50 48 49 48 48 51 50 48 47 44 42 43 44 44 44 44 44 44 44 45 45 45 46 46 46 46 46 46 46 48 49 48 47 45 43 42 43 43 44 45 46 46 46 45 44 43 43 43 43 42 40 36 33 31 30 29 28 28 28 29 28 28 28 27 25 22 18 14 12 11 12 13 15 17 17 18 19 20 20 19 18 18 19 20 21 22 23 24 24
57 57 56 55 55 54 52 51 51 48 48 47 49 52 50 48 46 43 42 43 43 44 45 43 43 44 45 45 45 46 46 46 46 46 46 45 46 48 49 48 46 45 43 43 43 43 44 45 45 45 44 45 44 43 43 43 42 41 37 33 31 29 28 28 27 28 28 28 28 28 27 26 23 20 16 14 12 12 12 13 15 17 18 18 19 21 21 20 20 20 21 21 22 23 24 24 24
58 58 57 57 56 55 53 52 51 49 47 48 50 53 51 48 46 43 43 43 43 44 45 44 43 44 44 45 45 46 47 47 46 46 45 45 47 48 48 47 45 44 44 42 42 43 43 43 44 43 44 44 43 42 43 43 41 37 34 31 29 28 27 27 27 27 28 28 28 27 26 25 22 18 17 15 14 14 13 13 14 16 18 19 19 21 21 21 21 21 22 23 23 23 24 24 25
60 60 59 59 58 56 55 52 51 50 49 50 51 54 52 47 45 44 43 43 42 43 44 44 44 43 43 44 45 46 47 47 47 45 45 46 47 47 46 45 45 44 43 41 40 41 41 42 42 42 43 43 43 43 43 42 39 34 31 29 28 27 27 27 27 27 27 28 28 27 26 24 20 18 18 17 16 15 14 14 15 16 18 19 20 21 21 22 22 22 22 23 24 24 24 24 24
63 63 61 61 60 58 57 54 52 52 51 51 51 55 53 47 45 44 43 42 42 41 42 43 44 43 42 44 45 46 46 47 46 45 45 46 46 46 45 44 44 43 42 40 39 40 41 42 42 41 42 43 43 43 43 40 36 32 29 28 27 27 26 26 26 26 27 27 27 26 25 22 18 18 19 18 18 17 16 15 16 17 18 19 19 20 22 22 23 22 23 23 24 25 25 25 24
66 65 63 63 62 59 58 55 53 54 53 53 53 55 54 48 45 44 43 43 41 41 42 42 43 43 42 44 45 45 46 46 46 45 44 44 45 45 45 44 43 43 42 40 39 39 41 41 41 41 41 42 43 43 42 37 33 30 28 27 26 26 26 26 26 26 26 27 26 26 23 20 18 19 20 20 19 19 18 18 17 18 19 19 20 21 22 23 23 24 24 24 25 26 25 25 24
68 67 65 65 64 60 59 56 54 55 53 54 56 55 55 50 45 45 44 43 41 41 42 40 42 42 43 45 44 44 45 45 44 43 42 42 43 44 44 44 43 43 41 40 39 39 40 41 41 41 41 42 44 42 39 34 30 28 27 26 26 25 25 25 25 25 26 26 26 24 21 19 19 20 21 21 21 21 20 19 19 19 20 20 21 22 22 23 24 25 26 26 25 26 26 25 25
70 69 67 67 65 61 59 58 56 56 55 57 58 56 56 51 47 47 45 43 42 41 41 39 41 41 43 45 44 44 44 43 42 41 41 41 42 43 44 44 43 42 40 39 39 40 40 41 41 41 41 43 43 39 35 31 29 27 26 26 25 25 25 25 25 25 25 25 24 23 21 20 20 21 21 22 22 22 21 20 20 20 20 21 22 22 23 24 25 27 27 27 26 26 25 25 25
71 69 68 68 66 62 61 60 59 58 59 60 59 58 56 52 49 48 46 44 42 41 41 41 41 41 43 44 43 44 44 43 41 41 40 40 41 42 43 43 42 41 40 39 39 40 40 41 42 43 43 42 40 35 32 29 28 27 26 25 25 25 25 25 24 24 24 24 23 22 21 20 20 20 21 21 22 22 22 21 21 22 21 22 23 24 25 26 27 27 28 28 27 26 25 24 24
71 69 69 68 66 64 62 62 60 60 61 62 61 60 56 53 50 48 47 45 44 42 43 43 42 42 42 42 43 44 44 43 41 40 39 39 40 41 41 41 41 40 39 39 39 40 40 42 43 44 42 38 35 32 30 28 27 26 26 25 25 25 25 24 24 24 24 23 23 22 21 20 19 20 20 20 21 22 22 22 23 24 24 24 25 26 27 28 28 28 28 27 27 26 25 25 24
71 69 70 69 66 65 63 62 62 62 63 63 62 60 56 53 51 50 49 48 46 44 44 44 42 43 42 41 43 45 44 42 41 40 38 38 38 38 39 39 39 39 38 38 39 40 41 43 44 42 38 34 33 31 28 27 26 26 25 25 24 24 25 24 23 23 24 23 23 22 21 20 20 20 20 21 21 22 23 23 24 26 27 27 27 28 28 29 30 29 28 27 26 26 25 25 24
72 70 70 70 66 65 64 64 64 65 65 64 62 59 56 54 53 51 50 50 48 46 45 43 42 43 43 43 45 45 44 42 40 39 38 37 37 37 38 38 39 39 39 39 40 41 43 44 42 38 34 32 31 29 28 27 26 25 25 24 24 24 25 24 24 23 23 23 23 22 21 20 20 21 22 23 23 24 25 26 27 29 30 30 31 30 30 30 30 29 27 26 25 25 25 25 25
73 72 72 70 67 66 66 66 66 67 67 65 62 60 58 56 54 52 51 51 50 47 46 44 43 43 44 46 47 45 43 40 40 39 38 38 37 37 38 38 39 40 40 41 42 43 42 41 38 35 32 31 29 28 27 26 26 25 24 24 24 24 25 25 24 24 24 24 23 22 21 20 21 22 23 24 26 27 28 29 30 31 32 32 32 31 31 30 30 29 27 26 25 24 25 25 25
75 74 73 71 68 67 68 68 68 69 68 66 63 61 59 57 55 53 51 52 51 49 48 46 44 43 45 47 46 45 43 41 41 41 40 39 38 38 38 39 41 41 42 42 42 41 40 38 36 33 31 30 28 27 26 26 25 25 24 24 24 25 25 25 25 25 25 25 24 23 22 22 22 24 25 26 27 28 29 30 30 31 31 32 32 31 31 30 30 29 27 25 24 24 25 25 25
75 74 73 72 70 70 71 71 70 71 69 66 64 62 60 58 57 54 53 53 53 52 50 48 46 46 46 45 44 45 44 43 42 41 41 40 38 38 39 41 42 42 41 40 40 38 37 35 34 32 30 29 28 27 26 26 26 25 24 24 25 25 25 25 25 25 26 25 24 24 24 24 25 26 26 27 28 28 29 29 29 29 29 30 30 30 30 30 31 30 28 27 25 25 25 25 26
73 73 73 72 72 73 73 73 73 73 71 67 65 63 61 60 58 56 55 54 54 53 51 49 49 48 47 45 45 45 44 44 42 41 40 40 39 38 39 41 42 41 39 38 37 36 35 34 32 31 30 29 28 27 26 27 26 26 25 24 25 25 26 26 26 26 26 25 24 24 25 25 26 27 27 27 27 28 28 28 28 28 28 29 29 30 30 31 31 30 30 29 28 27 26 26 26
70 71 71 72 73 74 74 75 76 75 71 68 66 64 62 61 60 58 56 55 56 55 53 52 51 50 48 46 46 45 44 43 42 41 40 40 39 39 40 41 40 38 37 36 36 35 34 32 31 30 30 29 28 27 27 27 27 26 26 25 25 26 26 26 27 26 25 24 23 23 24 24 25 26 27 27 27 27 27 28 28 28 29 29 30 31 31 32 32 32 32 31 31 30 28 27 27
67 67 68 71 73 73 75 77 77 75 72 69 67 65 63 62 61 59 58 57 58 57 55 53 52 51 49 47 47 46 45 44 43 42 41 40 39 40 40 40 38 37 36 36 35 35 34 32 31 30 30 30 29 28 28 28 28 27 27 26 26 27 27 27 27 27 25 24 25 25 25 25 26 27 28 28 28 28 28 29 29 29 30 31 31 32 33 33 34 34 34 34 33 31 30 28 27
64 65 66 68 70 72 76 77 76 74 71 69 68 66 64 63 62 61 59 59 59 57 56 54 53 51 50 49 49 48 46 45 43 42 41 40 40 40 40 38 37 37 36 36 35 35 33 33 32 31 31 30 30 29 29 29 29 29 28 28 27 27 28 28 28 28 27 26 27 28 29 29 30 30 31 31 31 31 31 31 31 31 32 32 33 33 34 35 35 35 35 35 34 32 30 29 28
62 63 65 65 67 70 73 74 73 72 71 69 68 67 65 64 63 62 61 61 59 57 56 55 54 53 52 51 50 49 47 46 45 43 42 42 41 41 39 38 37 37 37 36 35 34 34 33 32 32 31 31 30 30 30 30 30 29 29 29 28 28 29 29 29 29 28 28 29 30 32 32 33 33 34 34 34 34 34 33 33 33 33 33 33 34 34 35 35 35 35 34 34 33 31 30 29
61 62 63 63 66 67 68 69 69 70 69 69 68 66 65 64 64 63 62 62 59 58 57 57 55 55 54 53 52 50 49 48 45 44 43 43 42 40 39 37 37 38 37 36 35 35 34 34 33 32 32 31 31 31 31 31 31 30 30 30 29 29 29 30 30 30 31 31 32 33 34 34 34 34 35 35 35 35 35 34 34 34 33 33 33 33 34 34 34 34 34 34 34 33 32 30 29
59 61 62 63 64 64 64 65 65 66 66 67 66 66 66 65 64 64 63 62 60 59 58 57 56 56 55 55 53 51 50 48 46 45 45 44 42 40 39 38 38 38 37 37 36 35 35 34 34 33 33 32 32 32 32 32 31 31 31 30 30 30 30 31 31 32 33 34 34 35 35 35 35 35 36 36 35 35 34 34 34 33 34 34 33 33 33 33 33 33 33 33 33 33 32 30 29
58 60 62 62 62 62 61 60 61 62 63 64 64 65 65 64 64 64 63 62 61 60 58 57 57 57 56 56 54 52 51 49 48 47 46 45 42 41 41 39 39 39 38 37 36 36 36 35 35 35 34 33 33 33 33 33 32 32 32 31 31 31 31 32 32 33 34 35 35 35 36 36 36 36 36 36 35 35 35 35 34 34 34 34 33 32 32 32 32 32 32 32 33 33 32 31 30
58 60 61 60 60 60 58 57 58 58 59 60 61 63 64 63 64 64 64 62 61 60 59 58 58 58 57 56 54 53 52 50 49 48 47 45 43 42 42 41 40 40 39 38 38 37 37 37 36 36 35 34 34 34 34 34 34 34 33 33 33 32 32 33 33 34 35 35 36 36 36 37 37 37 37 37 37 37 37 37 36 35 35 34 33 33 32 32 32 32 31 32 32 33 33 32 32
58 60 59 59 59 58 56 55 55 55 56 57 59 62 62 62 63 64 64 63 62 61 60 59 59 58 58 56 55 54 53 51 50 49 47 45 44 43 43 42 41 41 40 39 39 39 38 38 38 37 36 36 36 36 35 35 35 35 35 34 34 34 34 34 34 35 35 35 36 36 37 37 38 38 38 38 38 38 38 38 37 36 36 35 34 34 33 33 33 32 32 32 32 33 34 35 36
58 58 57 58 57 56 55 55 54 54 54 54 57 58 58 60 62 64 64 63 63 62 61 60 59 59 58 57 56 55 53 52 50 49 47 45 45 45 44 43 42 42 42 41 40 40 40 39 39 39 38 38 37 37 37 37 36 36 36 36 36 36 36 35 35 35 35 36 36 37 37 38 39 39 39 39 39 39 39 39 38 37 37 36 36 35 34 34 34 34 33 33 33 34 35 37 38
58 57 56 57 57 56 55 55 54 53 53 53 54 54 55 58 61 63 64 64 64 62 62 61 60 59 59 58 57 56 54 52 51 49 47 46 46 45 44 44 44 43 43 42 42 41 41 40 40 40 39 39 39 39 39 38 38 37 37 37 37 37 37 36 36 36 36 36 36 37 38 39 39 40 40 40 40 40 40 39 39 38 38 37 37 37 36 36 35 35 34 34 34 35 36 37 38
58 57 56 56 55 55 55 54 53 53 53 52 51 51 52 56 59 61 62 63 63 63 62 61 60 60 60 59 58 56 54 53 51 49 47 46 46 46 45 45 45 44 44 43 43 42 42 42 41 41 41 41 41 40 40 40 39 39 39 39 39 38 37 37 37 37 37 37 37 38 39 39 39 40 40 40 40 40 41 40 40 39 39 39 39 38 38 37 37 36 35 35 35 36 36 37 37
59 58 55 54 54 54 54 54 52 53 53 51 50 50 51 53 55 57 60 61 62 63 62 61 61 61 61 60 58 56 54 53 51 49 48 47 46 46 45 45 45 45 45 45 44 44 43 43 43 43 43 42 42 42 42 41 41 41 40 40 40 39 38 38 38 38 38 38 39 39 39 40 40 40 40 41 41 41 42 41 41 41 41 41 40 40 39 38 38 37 36 36 36 36 37 37 36
59 57 55 54 53 53 54 53 51 52 52 51 50 50 51 51 52 54 56 58 60 62 62 61 61 61 60 59 57 56 55 53 51 50 48 47 46 46 45 45 46 46 46 46 45 44 44 44 44 45 45 44 44 43 43 43 42 42 41 41 40 40 40 39 40 40 40 40 40 40 40 40 41 41 42 42 43 43 43 43 43 43 43 42 41 41 40 39 38 38 37 37 36 37 37 36 36
57 57 55 53 52 53 53 52 51 52 52 50 50 51 51 51 51 51 53 55 57 59 60 60 61 60 60 59 58 57 55 53 52 50 48 47 46 45 45 46 46 47 47 46 46 45 45 45 46 46 46 45 45 44 44 44 43 43 43 42 42 42 41 41 41 41 41 42 42 41 42 42 42 43 43 44 44 44 44 44 44 44 44 43 42 42 41 40 39 38 38 37 37 37 36 36 35
56 57 54 52 53 53 53 51 51 52 51 50 51 52 51 51 50 51 52 53 55 57 57 58 59 59 59 59 59 58 56 54 52 50 48 47 44 42 44 46 47 48 48 47 47 46 46 46 46 46 46 46 46 46 45 45 45 45 45 44 44 44 44 44 43 43 44 44 43 43 43 43 44 44 45 45 45 45 45 45 45 45 44 44 43 42 41 41 40 39 38 37 36 36 36 35 35
57 57 54 54 55 55 53 51 51 52 51 51 51 52 52 51 51 51 51 51 51 53 53 54 55 56 57 58 58 58 56 54 52 51 49 48 43 40 42 43 45 47 48 48 48 47 47 47 47 47 47 47 47 47 46 46 46 46 46 46 46 46 46 46 45 45 45 45 45 45 45 45 45 46 46 46 46 46 46 46 45 45 44 44 43 42 42 41 40 39 38 37 36 36 36 35 34
59 59 58 59 59 57 54 51 50 51 50 50 51 52 52 52 51 51 50 49 48 49 49 51 52 54 55 56 56 55 54 54 54 52 51 47 44 44 46 45 44 45 48 49 49 48 47 47 48 47 47 47 46 46 47 47 47 47 47 48 48 48 48 47 47 47 47 47 47 47 46 46 47 47 47 47 47 47 47 46 46 45 45 44 43 43 42 41 40 39 38 37 36 36 36 35 35
60 62 62 62 61 58 55 51 50 50 49 50 51 52 52 52 52 51 49 47 46 46 46 47 49 50 52 53 53 53 53 54 53 52 49 43 42 47 49 50 48 45 45 48 50 49 47 47 48 48 47 46 46 47 47 47 48 48 49 49 50 49 49 48 48 48 48 49 48 48 48 48 48 48 48 48 48 47 47 47 46 46 45 45 44 43 42 41 40 39 38 37 36 36 36 36 36
63 65 65 63 62 59 55 52 51 49 48 48 50 51 52 51 51 50 49 47 45 43 43 45 45 45 47 48 49 50 51 52 50 49 47 44 46 50 50 51 51 46 43 44 47 50 49 49 48 47 47 47 47 48 47 48 49 50 50 50 50 50 50 50 49 50 50 50 50 49 49 49 49 49 49 49 48 48 48 47 47 46 46 45 45 44 43 42 41 39 38 37 37 37 36 36 36
63 66 66 65 64 60 56 54 52 50 48 47 48 50 50 50 50 49 48 47 46 42 41 40 39 39 41 43 46 47 48 49 49 50 49 48 51 53 50 50 51 49 43 39 40 45 49 50 49 47 47 47 48 48 48 48 49 50 51 51 51 51 51 51 51 51 51 51 51 51 51 50 50 50 50 49 49 49 49 48 48 47 47 46 45 44 43 42 41 40 39 38 38 37 37 36 36
61 64 66 66 65 61 58 56 54 52 50 47 47 48 48 47 47 47 47 47 45 42 40 39 38 38 37 39 45 46 46 48 50 51 50 49 51 53 52 52 51 49 45 38 34 35 39 43 46 48 48 46 46 47 47 48 49 51 51 51 51 51 51 51 51 52 52 52 52 52 52 51 51 51 50 50 50 50 50 49 49 48 48 47 46 45 44 43 42 41 39 39 38 38 37 36 35
60 62 65 66 66 64 61 57 55 55 52 49 49 48 45 44 44 45 47 46 43 41 42 43 44 42 40 42 46 46 47 49 50 51 49 48 51 52 53 53 52 50 47 42 37 35 36 37 40 43 43 43 44 46 47 47 49 51 51 51 51 51 51 51 51 51 52 52 52 52 52 52 52 51 51 51 51 51 50 50 49 49 48 47 46 45 44 43 42 41 40 38 38 37 37 36 35
59 61 63 65 66 66 62 58 58 57 55 53 51 48 44 43 43 44 44 42 41 42 43 45 46 45 46 48 48 47 47 48 48 49 47 47 49 51 50 50 49 49 49 48 45 44 45 43 44 43 42 44 47 48 48 47 49 50 50 50 50 50 50 50 50 50 51 51 51 52 52 52 52 52 52 52 52 51 51 50 50 50 49 48 47 46 45 44 43 41 39 38 37 37 37 37 36
60 60 61 63 66 66 63 61 61 60 58 55 52 50 47 44 43 42 41 40 40 42 43 45 45 45 46 47 47 46 46 45 46 45 45 46 47 47 48 47 47 47 51 52 46 44 48 47 46 47 48 50 50 48 48 47 48 49 49 49 49 49 48 48 48 49 50 50 51 51 52 52 52 52 52 52 52 52 51 51 51 51 50 49 48 47 45 44 42 40 39 38 38 38 38 38 38
61 61 61 62 65 66 64 64 64 62 58 55 54 52 49 46 44 41 39 38 39 40 42 44 45 46 46 45 45 45 44 43 42 40 40 42 44 45 47 47 48 47 49 52 46 41 43 41 41 46 49 50 47 46 46 45 45 46 46 46 46 46 46 46 46 47 48 49 49 50 51 51 51 51 51 52 52 52 51 51 51 51 51 49 48 46 45 43 41 40 39 39 39 39 40 40 40
62 61 61 62 64 65 65 66 66 63 59 57 57 53 49 48 46 43 39 37 37 39 42 44 46 46 45 45 45 44 43 42 40 37 38 39 40 44 45 45 47 47 46 49 47 42 38 36 40 44 44 42 40 40 40 39 39 41 42 43 43 44 45 45 46 46 47 47 48 48 48 48 48 49 49 50 50 50 50 50 51 50 50 49 47 45 44 42 41 41 41 41 41 41 41 42 42
61 61 63 63 63 63 64 66 66 64 61 60 57 53 50 50 48 44 40 37 36 39 43 45 46 45 45 46 46 44 44 42 39 37 38 38 39 40 41 41 44 45 41 40 40 36 31 33 37 37 35 35 34 35 36 36 38 40 41 42 43 44 44 45 46 46 46 47 47 47 47 46 46 46 47 47 48 48 48 48 48 48 48 47 46 44 43 42 42 42 42 42 43 43 43 43 43
63 65 64 63 63 62 62 63 64 64 61 59 57 54 53 51 49 45 41 39 40 42 44 45 44 44 45 46 45 44 43 42 39 37 37 38 38 38 37 38 40 40 37 34 34 32 29 31 33 33 33 34 35 37 38 40 41 42 42 42 43 43 44 44 45 45 46 47 47 47 46 46 46 46 45 46 46 46 46 46 46 46 46 45 44 44 43 43 43 43 44 44 44 44 44 44 43
66 67 65 63 62 61 61 61 61 60 58 59 59 56 54 52 50 46 43 42 42 42 43 44 43 43 45 45 44 44 44 42 40 38 37 36 36 37 37 37 38 38 38 37 36 34 33 34 36 36 36 37 39 41 43 44 45 44 44 44 43 43 43 44 44 45 45 46 46 46 46 46 46 46 46 46 46 46 46 45 45 45 45 44 44 44 43 43 43 44 44 44 45 44 44 43 43
68 67 64 62 61 60 59 57 55 53 56 60 59 57 56 53 51 48 44 43 43 43 44 44 43 44 45 44 43 43 44 43 41 39 39 38 36 36 37 37 36 38 39 40 40 39 38 39 39 40 40 41 44 46 46 46 46 45 45 45 44 44 44 44 44 44 44 44 45 45 45 45 46 46 46 46 46 46 46 46 45 45 45 44 44 44 43 43 43 43 44 44 44 43 43 42 42
68 66 63 61 60 58 54 52 50 51 54 57 57 58 57 54 52 49 47 46 45 45 45 45 44 44 44 43 42 43 44 44 43 42 41 40 38 36 35 36 35 36 39 41 42 43 42 42 42 43 44 44 44 44 44 44 44 44 44 44 44 45 45 45 44 44 44 44 44 44 44 45 45 45 45 46 46 46 46 46 45 45 45 44 44 44 44 43 43 43 43 43 43 42 42 41 41
67 66 64 62 60 57 54 52 51 52 53 52 54 57 57 55 53 50 51 50 47 47 47 46 46 45 44 43 43 44 44 44 44 44 43 41 38 35 33 33 33 35 38 41 44 45 45 45 44 43 41 39 38 38 39 39 40 41 42 42 43 44 44 45 44 44 44 44 43 43 44 45 45 45 45 45 46 46 46 45 45 45 45 44 44 44 44 44 43 43 43 42 42 42 42 41 41
69 68 67 63 60 58 57 55 53 53 51 49 52 54 53 53 52 52 54 52 49 49 48 48 47 46 45 44 44 44 44 44 44 43 42 40 37 35 32 29 30 35 37 40 43 43 43 43 40 38 37 37 38 38 39 39 38 38 39 41 42 42 43 43 44 44 44 44 44 44 45 45 46 46 45 45 46 46 46 45 45 45 44 44 44 44 44 43 43 42 42 42 42 42 42 42 43
69 68 66 63 62 59 57 56 55 54 52 49 52 53 51 52 53 55 56 54 52 51 50 49 49 47 47 46 45 44 44 44 43 40 38 36 32 29 25 24 31 37 38 39 41 40 38 38 38 39 39 40 42 43 44 42 41 40 40 39 39 40 40 41 42 43 44 44 45 45 45 45 46 46 46 45 46 46 46 45 44 44 44 44 44 43 43 43 42 42 43 43 43 43 43 44 44
67 65 65 65 62 59 58 58 57 55 53 51 52 52 50 51 53 55 56 56 55 53 52 51 50 49 48 47 47 47 46 43 39 35 30 25 22 21 22 29 37 40 39 38 39 38 38 39 40 41 40 40 42 43 42 42 41 41 40 38 36 36 37 38 39 40 41 43 43 44 45 45 45 45 45 46 46 47 46 46 45 45 45 44 44 43 43 43 43 43 43 44 44 44 45 46 46
65 66 66 63 60 59 59 58 55 54 52 50 50 50 49 49 51 54 57 58 57 55 54 53 52 51 50 49 50 49 45 39 34 30 25 24 26 30 35 40 41 40 40 39 38 39 42 41 39 38 38 39 39 38 38 38 38 38 38 36 35 35 35 35 36 37 39 40 41 42 43 43 44 44 45 46 46 47 47 47 47 47 46 45 45 44 44 44 44 44 45 45 45 46 47 48 48
64 66 64 61 61 61 60 57 54 53 52 50 50 49 47 47 49 53 57 59 58 57 56 54 54 53 51 51 51 48 42 37 34 33 34 37 40 42 43 44 42 40 40 39 39 40 40 38 36 37 40 40 38 37 36 35 34 35 35 34 34 34 34 34 34 35 36 37 38 40 40 41 42 43 44 45 46 47 48 48 48 47 47 47 46 46 46 46 46 46 47 47 48 48 49 50 50
62 62 60 60 61 60 58 56 55 53 52 51 51 50 49 48 49 53 56 58 58 58 57 56 55 53 53 53 51 47 43 40 39 40 41 43 44 45 46 45 43 42 41 40 40 39 38 37 38 40 40 38 38 38 36 34 33 33 33 33 33 33 32 32 33 33 34 35 36 37 38 39 40 41 42 44 45 47 48 48 49 49 49 48 48 48 48 48 48 49 49 50 50 50 51 51 51
61 60 59 59 58 57 57 55 54 53 53 52 51 52 52 50 49 52 55 57 58 58 58 56 55 54 54 53 51 48 46 44 43 42 42 44 45 47 46 43 42 41 40 40 38 36 37 38 39 40 38 36 35 35 35 35 33 33 33 34 34 33 31 32 32 33 33 34 34 35 36 38 39 41 42 43 44 46 47 48 49 50 50 50 50 50 50 50 51 51 51 51 52 52 52 53 53
Wind_Direction
251 252 253 253 253 254 254 254 254 255 256 256 257 257 256 256 255 254 256 257 257 257 260 261 262 262 262 262 263 264 265 265 266 267 268 269 270 272 273 274 274 275 276 278 279 280 281 281 282 284 287 290 292 293 296 299 299 301 303 305 304 303 302 302 302 301 300 299 300 301 304 307 307 308 311 310 302 291 285 291 299 307 314 321 325 325 330 343 353 359 1 359 357 359 2 4 5
251 252 252 252 253 253 253 254 254 254 256 256 257 256 255 254 254 254 256 258 258 257 258 259 261 263 263 263 263 263 264 264 264 264 265 266 268 271 272 272 274 275 277 278 279 280 281 282 283 286 289 291 292 295 297 298 299 302 304 304 302 300 300 300 300 299 297 297 298 301 304 307 307 311 315 308 298 286 283 290 298 306 312 318 323 324 323 329 338 343 348 350 349 350 353 356 358
251 251 252 251 252 252 252 254 254 254 255 256 256 255 254 254 254 255 255 255 257 257 256 257 260 262 262 262 262 262 263 263 263 263 264 266 268 269 271 272 274 276 278 278 279 281 281 282 284 287 289 291 293 296 297 297 300 303 304 302 299 298 298 298 298 296 294 295 297 300 303 306 309 315 315 303 292 283 284 290 296 303 309 315 320 324 323 325 333 336 339 344 345 345 346 348 351
250 251 251 251 251 251 251 253 254 253 255 256 255 254 254 254 254 255 254 252 254 256 258 258 258 259 260 261 261 262 262 262 262 263 264 266 267 268 270 272 274 276 277 278 279 280 281 282 284 286 289 291 293 295 296 298 302 303 301 299 297 296 297 296 295 293 293 295 298 300 302 305 311 316 309 296 288 282 284 288 292 299 306 313 317 322 324 326 332 336 336 338 340 341 341 342 346
249 249 250 251 250 251 251 252 253 253 254 254 254 255 255 255 255 254 254 253 254 256 259 259 258 258 259 260 260 260 262 261 261 262 264 266 267 269 271 273 274 275 276 278 279 280 281 282 284 287 289 291 293 295 296 299 302 300 298 296 295 295 295 294 293 292 293 295 297 299 302 306 310 310 300 291 287 284 284 288 292 297 304 311 315 319 323 327 331 334 334 334 336 337 338 338 340
247 248 249 250 250 250 251 251 253 253 253 253 254 256 255 255 256 255 255 255 256 257 259 261 261 259 258 258 259 260 260 261 261 262 264 266 268 270 272 273 274 275 277 279 280 280 281 283 285 288 289 291 293 295 298 300 300 297 295 294 294 293 293 292 291 291 293 294 297 299 302 306 308 304 295 289 288 288 287 290 294 298 302 306 310 315 321 325 328 329 330 330 331 332 333 334 335
247 248 248 249 250 250 251 251 252 253 253 254 254 256 256 255 256 257 257 257 257 259 260 261 261 261 259 258 259 260 260 261 262 263 264 266 269 271 272 274 275 276 278 279 280 281 282 284 286 287 289 292 294 296 299 299 297 294 293 293 292 292 291 290 290 290 292 294 297 300 304 306 304 299 293 288 290 293 294 295 297 300 302 303 307 313 317 321 322 323 324 324 325 326 328 329 330
247 248 248 249 250 250 251 251 251 252 253 254 253 255 257 255 255 258 258 258 259 260 259 259 261 262 261 260 260 260 260 261 262 263 265 267 269 271 273 274 275 276 278 280 281 281 282 284 285 287 289 292 294 297 298 296 293 292 291 291 291 290 289 288 288 290 291 294 298 302 305 306 300 296 292 288 290 296 299 299 300 301 302 303 307 311 314 317 318 319 320 320 320 321 323 324 325
247 248 248 249 250 249 250 250 250 252 252 253 253 254 257 255 254 257 258 259 259 259 259 259 260 261 261 261 261 260 259 261 262 264 266 267 268 270 272 273 274 276 278 280 280 281 282 283 285 287 289 292 294 296 295 292 290 290 290 289 288 287 286 286 287 289 291 295 299 302 305 304 299 295 290 286 288 295 301 302 301 300 301 304 307 310 312 315 316 317 318 319 319 319 319 320 320
247 247 247 248 249 249 249 249 248 250 250 250 251 252 254 255 254 255 257 258 259 258 259 258 258 258 259 260 260 260 261 261 263 264 265 265 266 268 270 272 274 276 278 279 279 280 280 282 284 287 289 292 293 293 290 288 287 287 287 287 286 285 285 285 287 289 292 296 299 303 303 302 302 297 291 288 289 295 300 300 300 300 301 303 306 309 311 314 316 317 318 318 318 318 317 316 317
246 247 247 248 249 248 248 248 247 248 248 248 250 251 253 256 256 256 256 257 257 258 258 256 256 256 256 258 261 261 262 262 262 263 263 264 265 266 268 271 273 275 276 277 277 278 279 282 284 287 290 291 290 288 285 285 285 285 285 284 284 284 284 285 287 289 292 296 299 301 300 300 301 298 292 289 290 293 295 296 298 299 301 303 306 308 311 314 317 318 318 317 317 317 315 314 313
245 246 247 247 247 247 247 247 248 248 248 249 250 252 255 256 256 256 255 254 254 255 256 256 257 257 257 259 260 261 261 262 263 263 263 264 264 266 268 271 273 273 274 274 275 276 279 282 285 287 288 287 284 283 281 282 282 283 283 283 283 283 283 285 287 289 292 295 296 297 296 293 292 292 290 287 288 290 293 295 297 300 302 304 307 309 312 314 316 318 317 316 316 316 314 312 311
244 244 245 246 246 246 246 246 247 247 247 248 250 253 254 255 254 254 254 254 252 253 255 257 259 260 260 259 258 259 260 261 262 263 263 264 265 267 269 270 271 272 272 272 273 276 279 283 285 286 285 282 280 279 279 280 281 282 282 283 283 283 283 285 286 289 291 293 294 295 294 290 285 284 285 286 287 290 293 296 299 301 303 305 308 310 312 314 315 316 316 315 315 315 314 312 310
244 243 244 245 244 245 245 245 245 245 246 247 249 252 252 252 252 252 253 254 253 253 254 255 257 258 260 258 257 258 259 261 262 264 265 265 266 267 268 269 270 271 271 272 274 277 281 282 282 282 280 278 277 277 278 279 280 281 282 283 282 282 282 284 285 287 290 292 293 293 294 291 286 284 285 286 288 292 295 299 301 302 304 306 307 310 311 313 314 315 314 314 314 313 312 310 309
243 243 243 244 244 244 244 244 244 245 245 247 248 249 250 250 250 251 252 253 254 253 253 253 253 255 256 255 257 260 261 263 264 265 265 265 265 266 267 269 270 270 272 274 276 279 280 279 279 278 277 276 276 277 278 279 280 281 282 282 282 281 282 283 285 287 289 291 292 293 292 291 290 290 290 290 292 295 298 301 302 303 304 305 307 309 311 313 314 314 313 312 311 311 309 308 306
242 242 242 243 243 243 243 243 243 244 245 246 246 247 248 249 249 250 250 252 253 253 252 252 252 252 252 253 257 261 262 263 263 264 264 264 265 266 268 269 270 271 273 275 277 277 277 276 277 277 277 276 277 278 279 280 280 281 281 281 281 281 282 283 285 287 289 291 293 294 294 293 295 296 296 295 295 297 300 302 303 304 305 306 309 310 312 312 313 313 312 311 310 309 308 306 305
241 241 242 242 241 241 242 242 243 244 244 245 245 246 247 248 248 249 249 250 252 252 252 252 251 251 251 253 255 257 258 259 260 262 264 265 266 267 268 269 270 272 273 274 275 274 274 275 276 277 278 278 279 280 281 281 281 281 281 281 281 282 283 283 285 287 289 293 296 297 296 296 297 298 297 297 298 299 300 302 304 305 307 309 310 311 311 311 310 309 309 309 309 308 307 307 306
240 241 241 241 240 240 241 242 242 243 244 244 245 245 246 247 248 248 248 249 250 251 251 251 250 250 251 252 253 254 255 257 259 261 263 264 265 266 267 268 269 270 272 273 273 273 274 275 276 278 279 279 280 281 281 282 282 282 281 281 281 282 283 284 285 286 288 293 294 292 292 294 295 295 296 298 299 299 301 302 303 306 307 308 308 309 309 309 309 308 308 308 309 308 307 306 305
240 240 240 240 239 240 241 242 242 242 243 243 244 245 245 246 247 248 248 248 249 249 250 250 250 250 251 251 252 254 255 257 258 259 260 261 263 264 264 265 267 269 270 271 273 274 275 276 277 278 278 279 280 281 281 282 282 282 281 280 280 282 283 284 285 285 287 289 287 285 287 289 291 293 296 298 298 299 299 300 302 303 304 305 306 306 308 308 308 308 309 309 309 307 306 305 304
240 240 240 239 239 240 240 241 242 242 243 243 243 244 244 245 247 247 247 247 248 248 249 249 250 251 251 252 252 253 254 255 256 257 258 260 261 261 262 263 266 268 269 271 272 274 275 276 276 277 277 278 279 280 280 281 281 281 280 279 279 280 282 284 286 286 285 283 282 282 284 286 289 292 295 297 298 297 298 299 300 301 302 304 305 307 308 308 308 308 309 309 308 307 305 304 303
240 239 239 239 239 239 240 241 242 243 243 243 243 243 244 244 245 246 246 246 247 248 249 249 250 250 251 251 251 251 253 254 255 256 257 258 259 259 261 263 265 267 269 270 272 273 274 275 275 276 276 277 278 279 279 280 280 280 279 279 279 280 282 284 286 286 284 281 280 281 283 285 288 291 293 295 296 296 297 298 299 300 303 305 306 307 308 308 308 308 308 309 307 306 305 304 304
239 239 239 239 239 239 240 241 242 242 243 243 243 243 243 243 244 244 245 245 246 248 248 248 248 248 249 249 249 249 250 251 252 254 255 256 257 258 260 263 264 266 267 269 270 272 273 274 274 274 275 276 277 278 278 278 278 278 278 278 279 279 281 284 285 285 285 283 283 285 287 288 289 291 293 294 295 296 297 298 298 300 303 305 306 308 308 308 308 307 307 308 307 305 305 306 306
239 239 239 239 239 240 240 241 241 242 242 242 242 242 242 242 243 243 243 244 245 246 246 247 247 247 247 248 248 248 249 250 251 252 253 255 256 258 261 262 263 265 266 268 269 271 272 272 273 274 274 275 275 276 276 276 276 276 277 277 278 279 280 282 283 284 285 285 286 288 289 290 291 292 294 295 296 297 297 298 299 301 302 304 306 307 307 307 306 306 307 307 306 305 306 307 307
238 239 239 239 240 240 240 241 241 241 241 241 241 241 241 241 242 242 242 243 244 244 245 246 247 247 247 248 248 249 249 250 251 252 252 254 256 258 260 261 262 264 265 267 268 270 271 272 272 273 273 274 274 274 274 274 274 274 275 276 277 278 279 280 281 283 284 285 286 288 289 291 292 294 295 296 297 297 298 298 299 301 302 304 306 306 305 305 305 305 306 306 306 305 305 306 306
237 238 238 238 239 239 239 240 240 240 240 239 239 239 240 240 240 241 241 242 242 243 244 245 246 246 247 247 248 249 249 250 250 251 252 253 255 257 259 260 261 263 264 266 267 268 269 270 271 272 273 273 273 273 273 273 273 273 274 275 276 276 277 278 279 281 282 284 286 287 289 291 292 293 294 295 296 297 297 298 299 301 302 304 305 305 304 304 304 304 304 305 305 304 304 304 305
236 237 237 238 238 239 239 239 239 239 239 238 238 238 238 238 239 240 240 240 241 242 242 243 244 245 246 247 248 248 248 249 249 250 252 253 255 256 258 259 260 262 263 264 265 267 267 268 269 270 271 271 271 272 272 272 272 273 274 274 275 275 276 276 277 279 281 283 285 287 289 291 292 293 294 295 295 296 296 297 299 300 301 303 303 303 303 303 303 302 302 302 302 302 302 302 303
236 236 237 237 238 238 238 238 238 238 238 238 237 237 236 236 237 238 239 239 240 240 241 241 242 244 245 246 247 247 247 248 249 250 252 253 255 256 257 259 260 261 262 263 264 265 266 266 267 268 269 269 269 270 270 271 272 272 273 274 274 275 275 275 276 277 279 281 283 285 287 289 290 291 293 294 294 295 295 297 299 300 300 301 302 302 302 301 301 300 300 300 299 299 300 300 302
235 235 235 236 236 237 236 236 236 237 237 237 237 236 236 236 236 237 238 238 238 239 239 240 241 243 244 245 246 246 247 248 249 250 252 253 255 256 257 259 260 261 261 262 263 264 265 266 266 267 268 268 268 268 269 269 270 271 272 272 273 274 274 274 275 277 278 280 282 284 285 286 288 290 291 292 294 294 296 297 298 299 300 300 300 300 300 299 299 299 298 297 297 297 298 299 301
234 234 234 235 235 235 235 235 235 235 235 235 236 235 235 235 235 236 236 236 237 238 238 239 240 241 243 244 245 246 246 247 249 250 251 253 254 255 257 258 259 260 261 262 263 264 264 265 266 267 267 268 268 268 268 269 269 269 270 271 272 272 273 274 275 276 278 280 281 282 284 285 287 289 290 292 293 294 295 296 297 298 299 299 299 299 299 299 298 298 298 297 296 297 298 299 301
233 234 233 234 235 235 235 234 234 234 234 234 234 234 234 234 234 235 235 236 236 237 238 238 239 240 242 243 244 245 247 248 249 250 251 252 253 254 256 257 258 260 261 262 263 264 265 266 266 267 267 268 269 269 269 269 269 270 270 270 271 272 273 274 275 276 278 279 280 282 283 285 286 288 289 291 292 293 294 295 296 297 298 298 299 299 299 299 299 298 298 297 297 297 298 299 300
233 233 233 234 235 235 235 234 233 234 233 233 233 233 233 234 234 235 235 235 236 237 237 238 239 240 241 243 244 245 246 248 249 250 250 251 253 254 255 257 259 260 262 262 263 264 265 266 267 267 268 268 269 269 270 270 270 270 270 271 271 272 272 274 275 276 278 279 280 282 283 285 286 287 289 290 291 292 294 295 296 297 298 298 299 299 298 299 299 298 298 297 297 297 297 298 299
232 233 233 234 235 235 235 234 232 233 233 231 231 232 232 232 233 233 235 235 235 236 237 237 238 239 241 243 244 245 246 247 248 249 250 251 253 255 256 258 260 261 261 262 264 265 266 267 267 266 267 267 268 268 268 269 269 270 270 271 271 272 273 274 275 276 278 279 280 282 283 284 285 286 288 289 291 292 294 295 296 297 298 298 299 298 298 299 298 298 298 297 297 296 296 297 298
232 233 233 233 235 235 234 233 231 232 232 230 230 231 231 231 231 232 233 234 234 235 236 237 238 240 241 243 244 245 246 246 247 248 249 251 253 256 258 260 261 262 263 264 265 266 266 266 265 265 266 266 267 267 268 268 269 269 270 270 271 272 273 273 275 276 277 279 280 281 282 283 284 285 287 288 290 292 293 295 296 297 297 298 298 299 299 299 299 298 298 298 296 296 296 296 296
232 234 234 234 235 234 234 232 230 231 230 229 229 230 230 230 231 231 232 233 234 235 236 237 239 241 242 244 244 244 245 246 247 248 249 250 253 258 262 263 263 263 263 264 264 264 264 264 264 264 265 265 266 266 267 268 268 269 270 271 272 273 273 274 275 276 277 278 279 279 280 281 283 284 286 288 289 291 292 294 295 296 297 298 298 299 299 299 298 298 298 297 295 295 295 295 295
231 232 232 233 233 233 232 230 229 230 229 228 229 229 230 229 230 230 231 232 234 236 236 237 239 241 242 243 244 245 245 246 246 246 246 247 247 248 252 255 258 260 260 259 259 259 260 260 261 263 264 264 265 266 267 267 268 270 271 273 273 273 274 275 276 277 277 277 278 278 279 280 282 284 285 287 289 290 292 293 295 296 297 298 298 299 299 299 298 297 297 295 294 294 294 294 294
229 230 229 230 231 230 229 228 228 229 228 227 228 229 229 229 230 230 231 231 233 235 237 238 238 240 242 243 244 245 245 244 244 244 245 246 248 247 245 244 247 252 257 258 257 255 256 258 259 261 263 264 265 266 267 268 270 272 274 274 274 274 275 276 276 276 276 277 277 278 279 281 282 284 285 287 288 290 291 293 294 295 296 297 298 298 298 298 297 296 295 294 292 292 293 293 293
227 227 228 229 230 230 228 228 228 228 227 227 227 228 229 229 230 230 231 231 232 234 236 236 237 239 241 243 244 243 243 244 244 244 245 246 249 250 248 246 243 244 251 257 258 256 255 257 259 260 262 264 266 268 269 271 273 275 275 274 274 275 275 276 276 276 276 277 277 279 280 281 283 284 285 287 288 290 291 293 294 295 296 297 297 298 297 297 296 295 293 292 291 291 292 292 292
224 224 226 228 229 229 228 228 228 228 227 227 227 229 229 228 229 230 231 231 231 231 233 236 237 239 243 245 244 243 242 243 243 244 243 239 238 240 243 246 245 243 246 253 258 262 261 259 258 260 262 264 266 269 270 272 273 273 273 273 274 274 275 275 276 276 277 277 278 280 281 282 283 284 286 287 289 290 291 292 293 294 295 296 297 297 297 296 295 294 292 290 290 290 291 291 291
223 223 224 226 228 228 227 227 228 227 227 227 228 229 229 229 230 230 231 230 229 227 230 236 238 240 245 247 246 244 243 242 241 240 239 236 235 236 239 243 246 244 244 251 260 267 266 263 261 261 262 265 267 268 269 271 272 272 272 272 273 274 274 275 276 277 278 279 280 281 282 283 284 285 286 287 288 289 290 291 292 293 294 295 296 297 297 296 294 293 291 290 289 290 290 291 291
224 223 223 225 227 227 226 226 227 227 226 225 227 228 228 229 230 230 231 230 229 226 225 230 232 232 237 244 246 244 241 240 238 236 235 234 235 237 237 239 243 241 242 247 256 265 268 267 267 265 264 266 268 268 270 271 271 271 271 271 272 273 275 276 277 277 278 279 280 281 282 283 284 285 286 287 288 288 290 290 291 292 294 295 296 296 296 295 294 292 291 290 289 289 289 290 290
225 224 224 224 225 226 225 226 227 228 226 225 226 227 226 228 229 229 231 231 229 227 223 223 225 225 225 232 237 237 235 235 235 234 233 232 233 235 235 236 239 238 238 241 247 256 263 268 271 268 266 268 271 272 272 273 272 271 271 272 273 274 275 276 277 278 279 280 281 281 282 283 284 285 285 286 287 288 289 290 291 292 293 294 295 296 295 294 293 292 291 290 290 289 289 289 290
225 225 225 224 225 225 224 224 226 227 226 225 226 226 225 226 227 228 230 230 229 227 225 224 224 223 222 227 232 234 234 233 233 233 231 231 231 233 234 234 238 239 238 241 249 256 257 261 268 269 267 271 275 276 274 272 272 271 272 273 275 275 276 277 278 279 279 280 281 282 282 283 284 284 285 286 287 288 289 290 291 292 293 294 294 295 294 294 293 292 292 291 289 289 289 289 290
223 224 224 224 225 225 223 223 225 226 226 226 227 227 225 225 226 227 228 229 228 228 227 227 226 225 225 227 230 233 234 234 234 233 232 231 232 235 235 235 239 242 242 244 253 261 258 259 266 268 267 271 274 274 270 269 270 271 273 273 274 275 276 277 278 279 280 280 281 282 282 282 283 284 285 286 287 288 289 290 291 292 292 293 294 294 293 293 292 291 291 290 289 289 289 290 291
222 223 223 223 224 223 221 222 224 225 226 226 227 227 226 226 226 226 225 226 227 228 228 229 228 227 227 228 230 231 233 235 236 235 234 233 233 236 236 235 238 241 243 244 250 262 262 258 261 263 265 269 269 267 267 268 270 272 273 273 274 275 276 277 278 280 280 281 281 282 282 282 283 284 285 286 287 288 289 289 290 291 292 292 293 293 293 292 291 290 289 289 289 289 290 291 292
222 223 224 223 224 223 221 221 222 223 224 224 226 226 226 227 227 226 225 225 226 227 228 228 228 228 228 229 230 231 232 234 234 234 234 234 233 235 235 235 236 239 244 245 249 260 262 255 256 258 260 261 259 261 266 270 271 273 274 275 275 276 277 278 279 280 280 280 281 281 282 283 284 285 285 286 287 287 288 288 289 290 291 291 291 291 291 289 288 287 288 288 289 290 290 292 293
221 222 223 223 224 223 222 221 222 223 223 224 226 226 226 227 228 226 225 224 225 227 228 228 228 228 229 230 230 231 232 233 233 232 233 234 233 234 236 235 236 239 243 245 249 255 253 248 250 252 252 255 258 264 270 273 275 276 276 277 277 277 278 278 279 279 279 279 280 281 282 283 284 285 286 286 287 287 288 288 289 289 290 290 290 290 289 287 286 286 286 287 288 290 291 292 294
221 222 223 223 224 223 222 222 222 222 223 225 227 227 227 228 228 227 224 223 224 226 228 229 229 228 229 230 230 231 233 233 233 232 233 235 235 235 236 236 236 237 237 241 247 250 248 247 248 251 256 262 268 273 277 279 280 280 279 278 278 277 277 277 277 277 278 279 280 281 282 283 284 285 285 286 286 287 288 288 289 289 290 290 289 289 288 287 286 286 286 287 288 289 290 292 293
221 224 223 224 224 224 223 223 223 222 223 225 226 226 227 228 228 227 225 224 225 228 230 231 230 229 229 230 230 231 233 234 234 234 235 237 237 236 236 237 238 235 234 241 249 253 254 255 256 260 264 268 272 277 280 282 281 280 278 277 277 276 275 275 276 277 278 279 280 281 282 283 284 284 285 286 287 287 288 289 289 289 290 290 289 288 288 287 286 286 286 286 288 288 289 290 291
221 224 224 225 226 227 226 225 225 224 224 226 226 226 227 227 228 228 226 226 226 228 230 231 231 230 230 230 231 232 234 235 236 237 238 240 240 239 239 240 241 241 241 246 251 254 256 258 260 264 268 272 276 279 281 280 279 277 276 276 275 275 274 275 276 278 279 280 281 281 282 283 284 284 285 286 287 287 288 288 289 289 290 290 289 289 288 287 287 286 286 287 287 288 289 289 290
224 225 225 226 227 229 229 228 227 225 225 226 226 226 226 226 226 227 226 225 225 226 229 231 231 231 230 230 230 231 232 234 236 237 238 240 241 241 242 244 245 246 248 248 249 253 257 259 264 268 272 276 278 279 280 280 279 278 278 277 276 275 275 276 277 279 280 281 281 282 283 283 284 285 285 286 286 287 287 288 289 290 290 290 290 290 289 288 287 287 287 287 288 288 289 289 288
224 225 226 226 227 227 227 226 225 225 225 224 225 226 225 224 224 224 225 224 223 225 227 229 231 231 231 230 229 230 231 232 233 235 235 236 237 239 242 246 249 251 251 252 253 256 260 264 267 270 273 278 280 281 282 284 284 282 281 279 278 277 277 277 278 279 280 281 282 283 284 284 285 285 285 286 286 287 287 288 289 290 291 290 290 290 289 289 289 288 288 288 288 289 289 288 287
221 223 224 225 225 225 225 224 222 223 222 221 225 225 223 223 222 222 224 223 222 224 226 228 229 230 230 229 228 228 229 230 231 232 233 233 235 239 243 248 252 253 253 256 257 258 261 264 267 271 276 280 282 284 285 287 288 287 284 281 280 280 280 280 280 280 281 282 283 284 284 285 285 285 286 286 287 287 288 289 290 290 290 289 289 289 289 289 289 289 288 288 289 289 288 288 287
222 223 223 223 224 224 225 224 223 223 220 218 223 224 220 220 219 220 224 223 221 223 224 226 227 228 229 228 227 227 227 228 229 230 231 232 235 241 245 245 245 245 249 253 256 259 262 265 268 273 277 279 280 281 282 283 285 286 286 284 282 282 283 283 283 283 283 283 283 284 284 284 285 286 287 287 287 288 288 288 288 288 288 288 288 289 289 288 288 288 288 287 288 287 287 287 286
221 223 223 223 223 223 224 225 224 223 221 219 222 223 219 218 218 220 223 223 222 222 223 225 225 226 227 227 227 226 225 225 226 228 228 228 231 231 230 233 235 239 246 249 253 259 264 267 270 274 276 277 278 279 279 280 280 281 284 284 283 283 285 285 285 285 285 285 285 285 285 285 286 286 287 288 288 288 289 289 289 289 288 289 289 289 288 288 288 287 287 287 287 286 286 287 286
220 221 222 222 223 224 225 226 226 225 224 221 224 225 221 219 219 220 222 223 222 221 222 223 224 224 225 226 227 226 225 224 224 223 217 215 221 218 220 228 232 238 246 246 247 255 262 265 269 273 275 277 278 278 278 278 277 277 278 279 281 283 284 286 287 287 287 287 287 287 287 287 288 288 289 290 290 291 291 292 292 291 291 291 290 289 288 287 287 287 286 286 285 285 286 286 286
220 222 222 221 221 222 224 226 226 226 225 222 223 225 223 220 220 220 222 223 223 221 221 222 223 224 225 226 228 228 226 222 219 215 209 212 218 219 223 231 233 237 247 250 251 256 259 261 265 272 276 277 276 275 275 276 276 276 276 276 279 282 285 286 287 288 289 290 290 290 290 290 290 291 292 292 293 293 294 294 294 293 292 292 291 289 288 287 287 286 285 285 285 285 285 286 286
220 222 223 223 223 223 224 225 226 226 225 222 222 223 221 219 219 220 221 223 224 222 221 222 223 224 224 226 228 229 226 221 217 213 211 213 216 220 228 234 236 239 245 249 252 256 258 259 264 270 274 274 272 271 272 275 276 276 276 278 281 284 286 286 287 289 292 293 294 294 294 294 294 295 295 296 296 296 296 296 295 294 293 292 291 290 288 287 286 286 285 285 285 285 286 286 286
218 219 221 223 224 224 225 226 227 227 226 223 222 222 221 219 218 220 221 222 224 224 222 222 224 224 225 226 227 227 225 221 218 215 214 216 219 225 232 237 239 240 241 245 251 256 260 263 267 270 271 272 272 272 274 275 276 276 276 278 282 285 286 287 288 291 294 295 296 296 297 298 299 299 300 300 300 300 300 299 298 297 295 294 292 291 289 288 287 287 286 286 286 286 286 286 287